Weather History for KMOD - October, 2013

Change the Weather History Date:

Thursday, October 10, 2013

  Actual Average Record
Temperature  
Mean Temperature 34 °F -  
Max Temperature 35 °F 82 °F 101 °F (1991)
Min Temperature 33 °F 54 °F 38 °F (1961)
Degree Days  
Heating Degree Days 30 1  
Month to date heating degree days 7  
Since 1 July heating degree days 10  
Cooling Degree Days 0 4  
Month to date cooling degree days 49  
Year to date cooling degree days 1661  
Growing Degree Days 10 (Base 50)    
Moisture  
Dew Point 45 °F    
Average Humidity 66    
Maximum Humidity 90    
Minimum Humidity 33    
Precipitation  
Precipitation 0.00 in 0.01 in 0.37 in (1957)
Month to date precipitation 0.14  
Year to date precipitation 9.17  
Since 1 July precipitation 0.42  
Snow  
Snow 0.00 in - 0.00 in (2002)
Month to date snowfall  
Since 1 July snowfall  
Since 1 September snowfall  
Snow Depth -    
Sea Level Pressure  
Sea Level Pressure 29.89 in    
Wind  
Wind Speed 3 mph (ESE)    
Max Wind Speed 22 mph    
Max Gust Speed -    
Visibility 10 miles    
Events      
T = Trace of Precipitation, MM = Missing Value Source: NWS Daily Summary

Daily Weather History Graph

Daily Weather History Graph

Search for Another Location

Airport or City:

Trip Planner

Search our weather history database for the weather conditions in past years. The results will help you decide how hot, cold, wet, or windy it might be!

Date:

Astronomy

Oct. 10, 2013 Rise Set
Actual Time 7:07 AM PDT 6:33 PM PDT
Civil Twilight 6:41 AM PDT 6:59 PM PDT
Nautical Twilight 6:11 AM PDT 7:29 PM PDT
Astronomical Twilight 5:40 AM PDT 7:59 PM PDT
Moon 12:59 PM PDT (10/10) 11:20 PM PDT (10/10)
Length of Visible Light 12h 17m
Length of Day
11h 25m
Waxing Crescent, 37% of the Moon is Illuminated
Oct 10
Waxing Crescent
Oct 11
First Quarter
Oct 18
Full
Oct 26
Last Quarter
Nov 3
New

Hourly Weather History & Observations

Time (PDT) Temp. Dew Point Humidity Pressure Visibility Wind Dir Wind Speed Gust Speed Precip Events Conditions
12:53 AM 51.1 °F 46.0 °F 83% 29.76 in 9.0 mi East 3.5 mph - N/A   Clear
1:53 AM 48.9 °F 46.0 °F 90% 29.78 in 9.0 mi ESE 5.8 mph - N/A   Clear
2:53 AM 48.0 °F 45.0 °F 89% 29.79 in 9.0 mi ESE 4.6 mph - N/A   Clear
3:53 AM 48.0 °F 45.0 °F 89% 29.81 in 9.0 mi ESE 5.8 mph - N/A   Clear
4:53 AM 48.9 °F 45.0 °F 86% 29.82 in 10.0 mi ESE 5.8 mph - N/A   Clear
5:53 AM 50.0 °F 46.0 °F 86% 29.84 in 10.0 mi Calm Calm - N/A   Clear
6:53 AM 48.0 °F 45.0 °F 89% 29.85 in 10.0 mi East 5.8 mph - N/A   Clear
7:53 AM 50.0 °F 46.0 °F 86% 29.88 in 8.0 mi ESE 9.2 mph - N/A   Clear
8:53 AM 54.0 °F 46.9 °F 77% 29.90 in 9.0 mi SE 8.1 mph - N/A   Clear
9:53 AM - 46.9 °F N/A% 29.93 in - North - - N/A   Unknown
10:53 AM 63.0 °F 46.9 °F 56% 29.94 in 10.0 mi SSE 6.9 mph - N/A   Clear
11:53 AM 64.9 °F 45.0 °F 48% 29.94 in 10.0 mi South 9.2 mph - N/A   Clear
12:53 PM 68.0 °F 42.1 °F 39% 29.93 in 10.0 mi SE 9.2 mph - N/A   Clear
1:53 PM - 42.1 °F N/A% 29.92 in - North - - N/A   Unknown
2:53 PM 72.0 °F 42.1 °F 34% 29.92 in 10.0 mi ENE 6.9 mph - N/A   Clear
3:53 PM 72.0 °F 41.0 °F 33% 29.92 in 10.0 mi ENE 3.5 mph - N/A   Clear
4:53 PM 73.0 °F 42.1 °F 33% 29.91 in 10.0 mi SE 5.8 mph - N/A   Clear
5:53 PM 70.0 °F 43.0 °F 38% 29.91 in 10.0 mi SE 3.5 mph - N/A   Clear
6:53 PM 64.0 °F 46.0 °F 52% 29.91 in 10.0 mi ESE 3.5 mph - N/A   Clear
7:53 PM 61.0 °F 46.9 °F 60% 29.93 in 10.0 mi Calm Calm - N/A   Clear
8:53 PM 59.0 °F 46.9 °F 64% 29.95 in 10.0 mi Calm Calm - N/A   Clear
9:53 PM 57.0 °F 46.9 °F 69% 29.96 in 10.0 mi Calm Calm - N/A   Clear
10:53 PM 55.0 °F 48.0 °F 77% 29.98 in 10.0 mi Calm Calm - N/A   Clear
11:53 PM 53.1 °F 46.9 °F 80% 29.98 in 10.0 mi Calm Calm - N/A   Clear